Terminal Aerodrome Forecast
Issued by NWS Atlanta, GA

Home | Current Version | Previous Version | Text Only | Print | Product List | Glossary On
Versions: 1 2 3 4 5 6 7 8 9 10 11 12 13 14 15 16 17 18 19 20 21 22 23 24 25 26 27 28 29 30 31 32 33 34 35 36 37 38 39 40 41
000
FTUS42 KFFC 012100 AAB
TAFATL
TAF AMD
KATL 012154Z 0122/0224 22004KT P6SM SCT050
     FM020100 VRB03KT P6SM SKC
     FM021200 17005KT P6SM BKN030
     FM021500 17006KT P6SM SCT045=

USA.gov is the U.S. government's official web portal to all federal, state and local government web resources and services.